Miscellaneous Local Product
Issued by NWS Hastings, NE

Home | Current Version | Previous Version | Text Only | Print | Product List | Glossary Off
Versions: 1 2 3 4 5 6 7 8 9 10 11 12 13 14 15 16 17 18 19 20 21 22 23 24 25 26 27 28 29 30 31 32 33 34 35 36 37 38 39 40 41 42 43 44 45 46 47 48 49 50

245
AXUS43 KGID 040902
MISGRI

GID CWA HOURLY WEATHER ROUNDUP
NATIONAL WEATHER SERVICE HASTINGS NE
400 AM CDT WED MAY 04 2016

NOTE: "FAIR" INDICATES FEW OR NO CLOUDS BELOW 12,000 FEET WITH NO
SIGNIFICANT WEATHER AND/OR OBSTRUCTIONS TO VISIBILITY.

...SOUTH CENTRAL NEBRASKA...

CITY           SKY/WX    TMP DP  RH WIND       PRES   REMARKS
GRAND ISLAND   CLEAR     48  42  80 NW9       30.01R
HASTINGS       CLEAR     50  42  74 N10       30.01R
KEARNEY        CLEAR     48  39  71 NW7       30.04R
ORD            CLEAR     44  40  85 NW7       30.03R
YORK           CLEAR     48  43  81 N9        29.99R
AURORA         PTCLDY    49  43  80 NW8       30.00R
LEXINGTON      CLEAR     45  40  84 NW7       30.06R
HOLDREGE       CLEAR     51  40  66 NW9       30.04R
HEBRON         CLEAR     52  45  76 NW7       29.97R

...NEBRASKA PANHANDLE...

CITY           SKY/WX    TMP DP  RH WIND       PRES   REMARKS
CHADRON        CLEAR     41  38  89 SW6       30.14F
ALLIANCE       CLEAR     36  35  96 W7        30.15S WCI  30
SCOTTSBLUFF    CLEAR     45  39  79 NW9       30.18S
SIDNEY         CLEAR     41  36  82 NW9       30.19S

...WESTERN AND NORTH CENTRAL NEBRASKA...

CITY           SKY/WX    TMP DP  RH WIND       PRES   REMARKS
VALENTINE      CLEAR     43  37  79 CALM      30.10R
AINSWORTH      CLEAR     46  39  76 NW6       30.09R
ONEILL         PTCLDY    43  36  77 NW8       30.05R
BROKEN BOW     CLEAR     46  40  79 N8        30.06R
IMPERIAL       CLEAR     47  38  71 NW9       30.13S
NORTH PLATTE   CLEAR     41  38  89 NW9       30.09R
MCCOOK         CLEAR     44  38  79 W8        30.08S

...EASTERN NEBRASKA...

CITY           SKY/WX    TMP DP  RH WIND       PRES   REMARKS
NORFOLK        CLEAR     49  34  56 NW9       29.99R
SO SIOUX CITY  CLEAR     51  32  48 N10       29.95R
TEKAMAH        CLEAR     50  36  58 N16G23    29.93R
COLUMBUS       CLEAR     48  34  57 NW9       30.00R
ALBION         CLEAR     41  37  85 NW5       30.02R
OMAHA EPPLEY   CLEAR     52  38  58 N12       29.91R
OFFUTT AFB     CLEAR     51  39  63 NW12      29.90R
MILLARD        CLEAR     53  39  58 NW8       29.91R
LINCOLN        CLEAR     53  41  63 N8        29.96R
NEBRASKA CITY  CLEAR     54  39  57 NW10      29.90R
BEATRICE       CLEAR     48  44  85 NW7       29.95R
FALLS CITY     CLEAR     54  45  71 NW9       29.88R

...NORTHERN KANSAS...

CITY           SKY/WX    TMP DP  RH WIND       PRES   REMARKS
GOODLAND       CLEAR     42  34  73 W8        30.15S
HILL CITY      CLEAR     47  41  80 W10       30.06S
NORTON         SUNNY     48  36  61 W14       30.04S
PHILLIPSBURG   CLEAR     46  43  87 W9        30.02S
SMITH CENTER   CLEAR     43  39  87 W6        30.01R
BELOIT         CLEAR     48  45  87 W6        29.97S
HAYS           CLEAR     45  36  70 W7        30.04S
RUSSELL        CLEAR     47  43  86 W8        30.00F
CONCORDIA      CLEAR     51  43  74 NW10      29.97R
SALINA         CLEAR     56  45  66 W10       29.97F
TOPEKA         CLEAR     54  45  71 W7        29.88F



USA.gov is the U.S. government's official web portal to all federal, state and local government web resources and services.